EW7304 Weather Reports


Display with metric or nautical units.
time (UTC)temp
F
wind
direction
speed
MPH
gust
MPH
rain 1hr
in
rain 24hr
in
rain mn
in
humidity
%
barometer
mb
20260902080007 80 205 0.0 3.0 0.00 0.01 0.00 92 1013.7
20260902074505 80 210 0.0 2.0 0.00 0.01 0.00 92 1013.6
20260902073005 80 212 0.0 2.0 0.00 0.01 0.00 92 1013.6
20260902071508 80 212 0.0 2.0 0.00 0.01 0.00 92 1013.7
20260902070006 80 216 0.0 2.0 0.00 0.01 0.00 92 1013.7
20260902064503 80 269 0.0 3.0 0.00 0.01 0.00 92 1013.6
20260902063001 80 232 0.0 2.0 0.00 0.01 0.00 92 1013.6
20260902061622 80 242 0.0 3.0 0.00 0.01 0.00 92 1013.6
20260902054600 80 231 0.0 4.0 0.00 0.01 0.00 91 1013.6
20260902053050 80 249 0.0 1.0 0.00 0.01 0.00 91 1013.5
20260902051554 80 228 0.0 0.0 0.00 0.01 0.00 90 1013.7
20260902050044 80 226 0.0 1.0 0.00 0.01 0.00 90 1013.8
20260902044543 80 260 0.0 0.0 0.00 0.01 0.01 90 1013.7
20260902043042 80 260 0.0 0.0 0.00 0.01 0.01 89 1013.7
20260902041555 80 260 0.0 1.0 0.00 0.01 0.01 89 1013.8
20260902040042 80 221 0.0 0.0 0.00 0.01 0.01 88 1013.8
20260902034544 80 221 0.0 1.0 0.00 0.01 0.01 89 1013.9
20260902033044 80 221 0.0 0.0 0.00 0.01 0.01 89 1013.9
20260902031540 80 221 0.0 0.0 0.00 0.01 0.01 89 1013.7
20260902030039 80 221 0.0 0.0 0.00 0.01 0.01 89 1013.5
20260902024542 80 221 0.0 0.0 0.00 0.01 0.01 88 1013.1
20260902023038 80 221 0.0 0.0 0.00 0.01 0.01 88 1013.1
20260902021551 80 221 0.0 1.0 0.00 0.01 0.01 88 1012.9
20260902020037 80 252 0.0 0.0 0.00 0.01 0.01 88 1012.8
20260902014540 80 252 0.0 0.0 0.00 0.01 0.01 88 1012.5
20260902013036 80 252 0.0 1.0 0.00 0.01 0.01 87 1012.3
20260902011539 80 287 0.0 0.0 0.00 0.01 0.01 87 1012.2
20260902010053 81 287 0.0 0.0 0.00 0.01 0.01 86 1012.1
20260902004541 81 287 0.0 0.0 0.00 0.01 0.01 86 1012.3
20260902003032 81 288 0.0 1.0 0.00 0.01 0.01 85 1012.5
20260902001532 82 278 0.0 0.0 0.00 0.01 0.01 85 1012.6
20260902000047 82 238 0.0 0.0 0.00 0.01 0.01 85 1012.6
20260901234558 82 217 0.0 0.0 0.00 0.01 0.01 85 1012.5
20260901233030 82 287 0.0 1.0 0.00 0.01 0.01 84 1012.5
20260901231544 82 321 0.0 0.0 0.00 0.01 0.01 85 1012.6
20260901230028 82 23 0.0 0.0 0.00 0.01 0.01 86 1012.8
20260901224532 82 324 0.0 0.0 0.00 0.01 0.01 86 1012.9
20260901223035 83 333 0.0 0.0 0.01 0.01 0.01 87 1012.9
20260901221529 83 301 0.0 0.0 0.01 0.01 0.01 87 1012.8
20260901220031 83 301 0.0 0.0 0.01 0.01 0.01 86 1012.6
20260901214523 84 259 0.0 0.0 0.01 0.01 0.01 87 1012.9
20260901213022 84 293 0.0 2.0 0.00 0.00 0.00 84 1013.2
20260901211520 83 263 0.0 0.0 0.00 0.00 0.00 84 1013.5
20260901210021 83 255 0.0 1.0 0.00 0.00 0.00 86 1013.3
20260901204519 83 264 0.0 2.0 0.00 0.02 0.00 84 1013.2
20260901203024 83 262 0.0 2.0 0.00 0.02 0.00 85 1013.0
20260901201516 83 303 0.0 2.0 0.00 0.02 0.00 85 1013.2
20260901200031 82 267 0.0 1.0 0.00 0.02 0.00 86 1013.5
20260901194511 82 299 0.0 0.0 0.00 0.02 0.00 86 1014.0
20260901193009 82 297 0.0 3.0 0.00 0.02 0.00 85 1014.2
20260901191512 82 297 0.0 1.0 0.00 0.02 0.00 85 1014.4
20260901190018 82 276 0.0 0.0 0.00 0.02 0.00 86 1014.6
20260901184508 82 294 0.0 1.0 0.00 0.02 0.00 85 1014.7
20260901183025 83 294 0.0 2.0 0.00 0.02 0.00 84 1014.8
20260901181507 83 302 0.0 0.0 0.00 0.02 0.00 86 1014.8
20260901180007 83 287 0.0 1.0 0.00 0.02 0.00 86 1014.8
20260901174506 83 340 0.0 0.0 0.00 0.04 0.00 86 1015.0
20260901173005 83 322 0.0 0.0 0.00 0.04 0.00 86 1015.3
20260901171504 83 349 0.0 0.0 0.00 0.04 0.00 83 1015.8
20260901170004 84 360 0.0 0.0 0.00 0.04 0.00 81 1016.0
20260901164503 84 94 0.0 3.0 0.00 0.04 0.00 79 1015.9
20260901163002 85 73 0.0 0.0 0.00 0.04 0.00 80 1016.1
20260901161501 85 110 0.0 3.0 0.00 0.04 0.00 79 1016.1
20260901154558 85 352 0.0 1.0 0.00 0.04 0.00 80 1015.7
20260901153055 85 74 0.0 0.0 0.00 0.04 0.00 81 1015.6
20260901151554 84 347 0.0 2.0 0.00 0.04 0.00 83 1015.5
20260901150050 84 50 0.0 1.0 0.00 0.04 0.00 83 1015.5
20260901144549 83 291 0.0 0.0 0.00 0.04 0.00 85 1015.6
20260901143046 83 295 0.0 0.0 0.00 0.04 0.00 86 1015.6
20260901141553 82 6 0.0 0.0 0.00 0.04 0.00 88 1015.7
20260901140046 81 328 0.0 1.0 0.00 0.04 0.00 88 1015.5
20260901134542 81 4 0.0 1.0 0.00 0.04 0.00 89 1015.5
20260901133044 81 356 0.0 1.0 0.00 0.04 0.00 90 1015.6
20260901131539 80 314 0.0 0.0 0.00 0.04 0.00 90 1015.5
20260901130037 80 311 0.0 0.0 0.00 0.04 0.00 91 1015.3
20260901124545 80 298 0.0 0.0 0.00 0.04 0.00 92 1015.2
20260901123035 79 298 0.0 1.0 0.00 0.04 0.00 92 1015.0
20260901121545 79 298 0.0 0.0 0.00 0.04 0.00 93 1014.7
20260901120034 79 298 0.0 0.0 0.00 0.04 0.00 93 1014.6
20260901114535 79 298 0.0 0.0 0.00 0.04 0.00 94 1014.6
20260901113035 79 298 0.0 0.0 0.00 0.04 0.00 93 1014.6
20260901111532 80 298 0.0 0.0 0.00 0.04 0.00 93 1014.5
20260901110039 80 298 0.0 0.0 0.00 0.04 0.00 93 1014.5
20260901104533 80 298 0.0 0.0 0.00 0.04 0.00 93 1014.4
20260901103032 80 298 0.0 0.0 0.00 0.04 0.00 92 1014.5
20260901101529 80 298 0.0 0.0 0.00 0.04 0.00 92 1014.4
20260901100029 80 298 0.0 0.0 0.00 0.04 0.00 92 1014.4
20260901094528 80 298 0.0 0.0 0.00 0.04 0.00 92 1014.5
20260901093025 80 298 0.0 0.0 0.00 0.04 0.00 91 1014.6
20260901091533 80 298 0.0 0.0 0.00 0.04 0.00 91 1014.7
20260901090026 80 106 0.0 1.0 0.00 0.04 0.00 92 1014.8
20260901084523 79 106 0.0 0.0 0.00 0.04 0.00 93 1014.9
20260901083022 79 106 0.0 0.0 0.00 0.04 0.00 93 1014.7
20260901081521 80 105 0.0 0.0 0.00 0.04 0.00 92 1014.6